TimeCST,TemperatureF,Dew PointF,Humidity,Sea Level PressureIn,VisibilityMPH,Wind Direction,Wind SpeedMPH,Gust SpeedMPH,PrecipitationIn,Events,Conditions,WindDirDegrees,DateUTC
12:14 AM,6.8,3.2,85,30.11,10.0,Calm,Calm,-,N/A,,Clear,0,2014-02-03 06:14:00
12:33 AM,1.4,-2.2,85,30.12,10.0,Calm,Calm,-,N/A,,Clear,0,2014-02-03 06:33:00
12:53 AM,1.4,-2.2,85,30.12,10.0,Calm,Calm,-,N/A,,Clear,0,2014-02-03 06:53:00
1:14 AM,-0.4,-5.8,78,30.13,10.0,Calm,Calm,-,N/A,,Clear,0,2014-02-03 07:14:00
1:33 AM,3.2,1.4,92,30.13,10.0,West,3.5,-,N/A,,Clear,260,2014-02-03 07:33:00
1:53 AM,3.2,-0.4,85,30.14,10.0,West,5.8,-,N/A,,Clear,260,2014-02-03 07:53:00
2:13 AM,3.2,-0.4,85,30.14,10.0,West,6.9,-,N/A,,Clear,280,2014-02-03 08:13:00
2:33 AM,6.8,1.4,79,30.14,10.0,WNW,9.2,-,N/A,,Clear,300,2014-02-03 08:33:00
2:54 AM,6.8,1.4,79,30.14,10.0,WNW,8.1,-,N/A,,Clear,300,2014-02-03 08:54:00
3:13 AM,3.2,-0.4,85,30.15,10.0,WNW,6.9,-,N/A,,Clear,290,2014-02-03 09:13:00
3:33 AM,3.2,-0.4,85,30.17,10.0,West,8.1,-,N/A,,Clear,270,2014-02-03 09:33:00
3:54 AM,3.2,-0.4,85,30.16,10.0,WNW,9.2,-,N/A,,Clear,290,2014-02-03 09:54:00
4:14 AM,-0.4,-4.0,85,30.17,10.0,WNW,6.9,-,N/A,,Clear,290,2014-02-03 10:14:00
4:33 AM,3.2,-0.4,85,30.17,10.0,NW,8.1,-,N/A,,Clear,310,2014-02-03 10:33:00
4:54 AM,6.8,1.4,79,30.17,10.0,WNW,8.1,-,N/A,,Clear,300,2014-02-03 10:54:00
5:14 AM,6.8,1.4,79,30.17,10.0,NW,8.1,-,N/A,,Clear,310,2014-02-03 11:14:00
5:33 AM,5.0,1.4,85,30.17,10.0,WNW,9.2,-,N/A,,Clear,300,2014-02-03 11:33:00
5:54 AM,5.0,-0.4,78,30.17,10.0,NW,6.9,-,N/A,,Clear,310,2014-02-03 11:54:00
6:14 AM,1.4,-2.2,85,30.18,10.0,WNW,5.8,-,N/A,,Clear,290,2014-02-03 12:14:00
6:33 AM,1.4,-2.2,85,30.18,10.0,NW,5.8,-,N/A,,Clear,310,2014-02-03 12:33:00
6:54 AM,1.4,-2.2,85,30.19,10.0,West,4.6,-,N/A,,Clear,270,2014-02-03 12:54:00
7:13 AM,3.2,-0.4,85,30.20,10.0,West,5.8,-,N/A,,Clear,270,2014-02-03 13:13:00
7:34 AM,3.2,-0.4,85,30.20,10.0,WNW,5.8,-,N/A,,Clear,300,2014-02-03 13:34:00
7:54 AM,1.4,-2.2,85,30.21,10.0,WNW,4.6,-,N/A,,Clear,290,2014-02-03 13:54:00
8:13 AM,3.2,-0.4,85,30.22,10.0,WNW,5.8,-,N/A,,Clear,300,2014-02-03 14:13:00
8:34 AM,1.4,-2.2,85,30.22,10.0,Calm,Calm,-,N/A,,Clear,0,2014-02-03 14:34:00
8:54 AM,3.2,-0.4,85,30.22,10.0,NW,4.6,-,N/A,,Clear,320,2014-02-03 14:54:00
9:13 AM,6.8,1.4,79,30.23,10.0,NW,4.6,-,N/A,,Clear,320,2014-02-03 15:13:00
9:34 AM,6.8,3.2,85,30.23,10.0,NNW,6.9,-,N/A,,Clear,330,2014-02-03 15:34:00
9:54 AM,8.6,3.2,79,30.24,10.0,NW,5.8,-,N/A,,Clear,320,2014-02-03 15:54:00
10:13 AM,10.4,3.2,73,30.25,10.0,WNW,5.8,-,N/A,,Clear,290,2014-02-03 16:13:00
10:34 AM,10.4,3.2,73,30.26,10.0,WNW,4.6,-,N/A,,Clear,300,2014-02-03 16:34:00
10:54 AM,10.4,5.0,79,30.26,10.0,NW,4.6,-,N/A,,Clear,310,2014-02-03 16:54:00
11:13 AM,12.2,6.8,79,30.26,10.0,NNW,4.6,-,N/A,,Clear,330,2014-02-03 17:13:00
11:34 AM,14.0,6.8,73,30.26,10.0,NW,4.6,-,N/A,,Clear,320,2014-02-03 17:34:00
11:54 AM,15.8,6.8,68,30.26,10.0,NNW,4.6,-,N/A,,Clear,330,2014-02-03 17:54:00
12:13 PM,15.8,8.6,73,30.26,10.0,NNW,3.5,-,N/A,,Clear,340,2014-02-03 18:13:00
12:34 PM,15.8,8.6,73,30.25,10.0,NNW,3.5,-,N/A,,Clear,330,2014-02-03 18:34:00
12:53 PM,15.8,8.6,73,30.25,10.0,Calm,Calm,-,N/A,,Clear,0,2014-02-03 18:53:00
1:13 PM,17.6,8.6,68,30.25,10.0,NNW,4.6,-,N/A,,Clear,330,2014-02-03 19:13:00
1:34 PM,17.6,6.8,63,30.25,10.0,NNW,4.6,-,N/A,,Clear,330,2014-02-03 19:34:00
1:53 PM,17.6,6.8,63,30.25,10.0,NNW,4.6,-,N/A,,Clear,340,2014-02-03 19:53:00
2:13 PM,17.6,6.8,63,30.25,10.0,NNW,4.6,-,N/A,,Clear,330,2014-02-03 20:13:00
2:34 PM,17.6,6.8,63,30.25,10.0,North,6.9,-,N/A,,Clear,10,2014-02-03 20:34:00
2:53 PM,17.6,6.8,63,30.26,10.0,North,6.9,-,N/A,,Clear,350,2014-02-03 20:53:00
3:13 PM,17.6,6.8,63,30.26,10.0,NNE,5.8,-,N/A,,Clear,20,2014-02-03 21:13:00
3:34 PM,17.6,6.8,63,30.26,10.0,NNE,4.6,-,N/A,,Clear,30,2014-02-03 21:34:00
3:53 PM,17.6,6.8,63,30.26,10.0,NNE,4.6,-,N/A,,Clear,30,2014-02-03 21:53:00
4:13 PM,17.6,6.8,63,30.27,10.0,NNE,5.8,-,N/A,,Clear,30,2014-02-03 22:13:00
4:34 PM,17.6,6.8,63,30.27,10.0,NNE,5.8,-,N/A,,Clear,30,2014-02-03 22:34:00
4:53 PM,15.8,8.6,73,30.28,10.0,Calm,Calm,-,N/A,,Clear,0,2014-02-03 22:53:00
5:13 PM,15.8,6.8,68,30.28,10.0,Calm,Calm,-,N/A,,Clear,0,2014-02-03 23:13:00
5:34 PM,15.8,6.8,68,30.27,10.0,Calm,Calm,-,N/A,,Clear,0,2014-02-03 23:34:00
5:53 PM,15.8,6.8,68,30.27,10.0,Calm,Calm,-,N/A,,Clear,0,2014-02-03 23:53:00
6:14 PM,12.2,6.8,79,30.28,10.0,Calm,Calm,-,N/A,,Clear,0,2014-02-04 00:14:00
6:33 PM,14.0,6.8,73,30.28,10.0,Calm,Calm,-,N/A,,Clear,0,2014-02-04 00:33:00
6:54 PM,12.2,6.8,79,30.29,10.0,Calm,Calm,-,N/A,,Clear,0,2014-02-04 00:54:00
7:13 PM,10.4,5.0,79,30.30,10.0,Calm,Calm,-,N/A,,Clear,0,2014-02-04 01:13:00
7:33 PM,10.4,6.8,85,30.31,10.0,West,3.5,-,N/A,,Clear,260,2014-02-04 01:33:00
7:54 PM,12.2,6.8,79,30.31,10.0,Calm,Calm,-,N/A,,Clear,0,2014-02-04 01:54:00
8:13 PM,10.4,5.0,79,30.31,10.0,Calm,Calm,-,N/A,,Clear,0,2014-02-04 02:13:00
8:33 PM,10.4,6.8,85,30.31,10.0,Calm,Calm,-,N/A,,Clear,0,2014-02-04 02:33:00
8:54 PM,10.4,6.8,85,30.32,10.0,Calm,Calm,-,N/A,,Clear,0,2014-02-04 02:54:00
9:13 PM,12.2,6.8,79,30.33,10.0,West,3.5,-,N/A,,Scattered Clouds,270,2014-02-04 03:13:00
9:33 PM,12.2,6.8,79,30.33,10.0,Calm,Calm,-,N/A,,Clear,0,2014-02-04 03:33:00
9:54 PM,12.2,6.8,79,30.34,10.0,West,3.5,-,N/A,,Mostly Cloudy,280,2014-02-04 03:54:00
10:13 PM,12.2,6.8,79,30.34,10.0,West,3.5,-,N/A,,Mostly Cloudy,280,2014-02-04 04:13:00
10:33 PM,12.2,6.8,79,30.34,10.0,Calm,Calm,-,N/A,,Scattered Clouds,0,2014-02-04 04:33:00
10:54 PM,12.2,6.8,79,30.35,10.0,Calm,Calm,-,N/A,,Mostly Cloudy,0,2014-02-04 04:54:00
11:13 PM,12.2,8.6,85,30.36,10.0,Calm,Calm,-,N/A,,Scattered Clouds,0,2014-02-04 05:13:00
11:33 PM,12.2,6.8,79,30.36,10.0,WNW,4.6,-,N/A,,Mostly Cloudy,300,2014-02-04 05:33:00
11:54 PM,12.2,6.8,79,30.37,10.0,NW,6.9,-,N/A,,Overcast,320,2014-02-04 05:54:00